Tracking 25710 objects as of 5-Jul-2022
HD Live streaming from Space Station
objects crossing your sky now

STARLINK-3737

Track STARLINK-3737 now!
10-day predictions
STARLINK-3737 is classified as:


NORAD ID: 52114
Int'l Code: 2022-029AC
Perigee: 545.7 km
Apogee: 548.4 km
Inclination: 53.2 °
Period: 95.4 minutes
Semi major axis: 6918 km
RCS: Unknown
Launch date: March 19, 2022
Source: United States (US)
Launch site: AIR FORCE EASTERN TEST RANGE (AFETR)
aabbcc
Your satellite tracking list
Your tracking list is empty




NASA's NSSDC Master Catalog

Two Line Element Set (TLE):
1 52114U 22029AC  22185.91667824  .00053003  00000-0  33280-2 0  9998
2 52114  53.2145 351.5479 0001917  46.9344 191.0685 15.08789547  1305
Source of the keplerian elements: AFSPC